Wind_Speed
30 36 38 39 38 36 35 37 31 34 35 33 34 32 30 30 27 28 30 27 26 26 23 22 25 26 22 26 27 27 24 24 16 16 18 28 37 37 37 37 35 33 28
36 36 36 38 39 38 37 39 35 35 34 29 29 33 30 26 29 26 26 26 25 24 24 23 26 25 25 29 27 27 31 32 40 24 24 23 32 31 31 31 30 28 26
34 34 36 36 34 36 38 39 36 32 29 26 31 27 31 32 27 28 29 30 28 28 26 26 24 24 28 29 31 32 35 36 36 37 27 28 30 32 33 32 27 27 24
34 35 32 34 35 34 35 33 26 25 28 30 29 31 30 32 36 35 33 31 30 26 27 28 23 32 33 35 34 36 38 39 35 34 33 26 25 26 29 28 27 27 26
35 32 34 34 33 26 27 28 32 32 34 34 33 31 27 25 33 31 30 28 27 27 26 24 32 37 39 42 44 37 39 34 32 31 27 26 24 21 21 23 27 29 23
35 33 34 33 30 34 31 30 32 33 34 32 33 32 33 25 25 30 26 35 18 23 29 32 32 32 32 33 40 46 49 45 31 31 25 23 20 23 25 23 27 21 7
32 32 31 34 32 28 30 29 30 33 35 36 36 33 31 30 20 20 5 22 28 39 42 42 37 37 45 42 40 36 33 30 34 34 30 23 27 25 30 25 18 20 21
35 32 30 28 29 29 28 27 30 31 33 36 38 36 30 26 16 11 31 35 29 37 43 47 46 45 44 49 45 42 38 35 30 30 32 29 29 29 25 29 32 30 24
30 29 29 28 28 27 27 27 27 31 34 35 23 15 22 23 26 39 42 41 40 43 43 43 53 48 46 51 51 48 45 40 36 36 34 31 28 28 32 35 28 24 16
30 31 28 27 25 25 27 26 28 33 28 14 30 34 40 39 41 42 47 43 49 48 46 47 49 47 43 46 49 48 41 34 43 41 37 33 28 24 23 24 28 25 20
31 29 26 25 24 23 25 24 24 25 12 26 30 34 39 41 44 40 44 46 46 45 41 39 41 43 43 42 45 45 43 40 38 43 40 37 33 29 26 24 20 20 21
28 25 24 24 23 22 22 28 19 19 21 27 32 33 37 43 46 46 47 48 47 47 42 42 46 47 45 43 43 40 37 40 39 36 35 32 34 36 32 30 28 27 26
24 22 21 23 22 20 20 16 20 20 22 24 28 31 35 41 44 49 51 50 48 49 47 49 49 46 44 41 38 36 37 39 36 34 31 31 34 32 31 30 28 28 27
19 19 19 19 21 19 17 19 21 18 19 24 27 27 30 34 39 44 49 53 52 49 44 43 42 41 39 38 38 36 35 33 35 35 34 35 32 29 27 24 25 27 29
13 15 16 19 19 18 24 22 23 19 22 26 25 27 31 30 30 36 39 37 39 42 43 39 37 37 36 34 33 35 35 33 34 33 32 31 30 28 26 25 27 28 26
16 15 14 17 19 22 27 32 34 30 30 32 31 36 36 39 37 40 42 41 38 38 39 36 32 31 32 31 31 31 31 34 35 34 33 31 29 26 23 22 21 20 21
14 15 16 20 19 20 26 31 30 39 39 38 41 40 40 41 40 39 38 37 34 40 38 32 31 31 30 30 30 32 34 32 31 31 30 29 27 24 25 25 25 25 23
13 17 20 20 21 21 24 27 29 30 31 33 36 39 37 37 36 38 38 39 36 34 33 32 32 31 31 32 33 34 33 30 29 27 27 25 25 24 23 22 22 25 24
14 18 21 22 22 23 25 27 29 30 31 31 33 32 32 32 31 29 34 38 33 32 32 32 33 34 34 35 35 33 31 30 28 28 26 25 24 27 27 24 21 20 20
16 19 22 22 22 22 23 26 26 27 25 24 25 24 25 33 32 30 33 34 35 33 33 36 35 36 36 36 34 31 29 28 29 29 27 25 23 23 23 22 22 21 19
18 18 21 22 21 21 21 23 22 25 25 25 26 24 27 34 29 30 31 33 35 36 37 37 35 35 33 32 32 32 33 31 29 28 26 24 24 24 22 21 20 19 19
19 19 21 21 21 22 22 24 24 26 26 26 26 26 31 35 32 32 34 35 35 35 34 35 33 32 31 31 31 31 30 29 28 27 25 24 22 21 19 19 18 18 18
21 22 21 21 23 24 24 23 24 26 28 28 28 29 31 33 33 34 35 34 33 33 32 31 30 28 26 26 26 27 29 28 26 26 25 23 21 20 20 20 19 18 17
21 22 22 22 22 22 24 25 26 29 30 29 29 29 31 33 34 34 34 34 33 30 29 28 27 27 25 24 23 23 24 24 23 22 22 22 22 20 20 19 18 17 17
21 22 22 22 22 23 26 26 27 28 29 29 29 30 32 34 34 34 34 33 30 29 28 26 25 24 24 24 23 23 22 21 21 20 22 22 23 20 19 18 18 17 16
22 22 23 24 24 27 27 27 28 29 29 29 30 32 33 33 34 34 33 31 29 28 27 25 24 24 23 23 22 21 20 20 20 19 20 21 22 21 21 22 21 21 21
Wind_Direction
322 322 321 315 315 312 310 309 304 309 305 298 296 295 297 290 282 286 284 272 264 262 260 258 264 266 230 194 175 168 157 154 130 111 112 114 111 112 108 104 100 96 89
318 315 312 309 312 312 309 310 301 305 303 299 299 296 292 291 289 277 275 272 266 259 255 253 246 253 205 172 159 145 139 141 136 127 124 108 107 110 106 102 100 94 90
309 306 304 304 305 304 306 305 300 297 300 302 300 296 291 287 282 283 281 267 264 255 253 247 243 191 154 151 144 135 134 135 131 125 117 116 114 115 109 108 99 94 88
309 306 301 307 305 302 301 300 306 310 307 306 301 295 288 288 286 277 273 266 259 255 247 251 226 166 151 140 137 136 137 130 130 124 121 126 121 119 113 110 100 104 98
309 307 309 304 309 312 316 311 308 306 305 303 295 291 282 266 269 267 265 254 247 252 241 208 170 161 150 146 137 134 127 122 126 122 125 123 125 126 119 117 107 106 98
313 308 309 310 310 311 310 311 310 308 305 303 296 290 287 273 268 270 268 260 234 151 118 115 123 130 129 132 134 140 145 133 131 126 127 129 132 129 131 125 123 117 96
317 317 312 310 307 310 312 314 312 309 309 303 299 290 275 272 263 260 150 135 126 121 114 109 105 110 110 106 108 111 114 120 125 128 130 134 136 142 135 129 126 114 117
312 313 314 316 311 315 314 312 312 312 308 305 301 295 266 247 217 204 114 105 103 105 109 110 108 105 107 107 103 96 97 103 115 121 127 134 139 143 139 130 123 118 119
311 314 316 320 317 318 317 314 317 315 313 315 339 26 87 128 141 113 108 101 94 92 96 104 106 106 112 111 105 101 98 97 98 100 102 111 123 131 132 128 119 115 108
322 314 316 316 315 318 314 318 321 315 316 26 41 62 84 94 101 105 104 105 94 90 89 93 103 110 111 109 108 107 99 99 103 103 104 109 115 111 131 133 127 115 111
314 315 316 318 318 316 317 315 314 322 23 66 63 67 81 87 90 94 97 95 100 96 97 98 103 106 104 103 107 105 107 108 104 103 99 100 113 114 110 112 110 102 94
313 315 317 320 318 322 323 332 18 54 68 69 68 70 74 81 86 90 94 97 99 99 100 101 102 100 101 101 101 107 109 109 105 98 94 93 98 102 102 101 98 93 89
314 316 322 327 328 330 332 5 68 61 73 77 77 77 79 83 87 91 93 95 97 98 100 102 101 100 100 100 104 105 103 100 100 99 100 100 104 106 106 103 100 98 93
325 333 338 333 338 5 78 67 77 76 81 86 87 85 87 88 92 94 95 97 100 100 100 98 99 100 100 99 97 98 101 104 105 104 104 108 109 106 105 109 104 101 94
4 355 351 353 11 61 69 69 73 73 94 96 93 95 98 90 94 102 104 104 104 106 105 101 97 95 95 97 97 102 105 104 107 114 115 114 108 104 100 96 97 101 96
11 7 1 36 62 72 78 69 74 83 86 92 96 99 97 103 105 104 105 107 108 109 98 98 98 100 100 102 101 101 103 107 109 111 112 114 113 111 105 101 107 112 106
10 15 50 69 74 85 90 90 84 76 83 90 96 99 103 109 107 107 106 104 103 103 98 100 100 101 103 104 106 107 108 110 112 110 111 113 113 110 111 108 106 105 104
46 68 74 78 85 87 92 95 97 98 97 94 94 99 102 104 105 106 107 104 95 93 98 102 103 106 107 108 109 112 114 115 113 114 115 117 118 118 115 111 111 111 108
74 83 87 87 89 91 95 98 100 102 101 101 99 94 99 99 99 99 105 100 101 99 103 104 107 111 112 114 117 118 118 119 121 120 121 121 119 115 112 110 108 106 105
85 104 102 99 96 95 100 104 105 103 100 97 97 101 106 108 95 92 98 103 105 107 111 113 116 119 120 120 122 123 123 124 124 121 119 118 120 119 116 114 112 108 101
101 104 107 102 96 101 103 105 103 101 97 96 97 108 112 107 101 102 105 107 114 119 122 123 124 124 124 125 126 126 125 126 126 124 123 121 120 115 114 111 109 106 104
108 106 107 104 104 105 107 108 108 103 101 100 101 103 115 112 110 110 114 120 124 125 127 127 126 127 130 131 133 132 131 131 130 127 125 124 122 117 115 112 110 108 106
109 109 108 107 109 112 110 110 106 106 107 109 111 112 114 116 117 120 122 125 127 128 128 126 126 127 130 133 134 133 133 133 132 130 128 127 123 117 115 110 108 104 100
113 114 113 113 114 114 114 112 112 116 118 117 118 117 119 125 125 127 128 130 130 129 129 127 128 129 132 132 131 130 130 130 131 130 127 125 122 119 114 110 107 104 101
112 113 115 117 120 119 119 118 118 121 125 125 124 125 129 131 131 132 133 134 132 131 128 128 128 130 130 131 131 130 130 131 130 128 124 120 117 115 111 108 107 105 102
114 116 119 125 125 127 127 126 126 131 131 133 135 136 138 137 137 137 138 137 135 132 130 129 130 131 130 130 130 132 134 132 131 129 125 120 116 113 111 108 105 101 99
Height
770 763 758 752 746 741 736 731 727 723 719 715 711 707 704 700 697 694 691 688 686 686 687 688 687 689 691 692 696 702 708 717 728 745 754 752 753 760 763 768 772 775 780
764 757 751 745 739 734 728 723 719 714 710 707 704 698 693 691 689 685 682 679 677 677 679 682 682 682 684 687 694 699 705 716 722 728 752 756 756 763 768 773 778 781 785
757 751 744 738 732 727 721 716 710 705 702 698 695 690 685 680 677 674 673 669 668 667 669 671 673 674 677 682 689 697 708 718 727 733 751 759 763 768 773 777 782 785 789
752 745 738 732 726 720 714 710 705 699 694 689 684 681 676 670 666 664 661 659 657 659 658 660 663 666 672 679 688 696 706 715 726 735 746 762 768 772 776 779 785 789 792
746 739 732 725 720 714 710 705 699 693 686 680 672 667 666 662 658 653 650 648 649 650 651 653 657 662 668 674 683 697 707 716 729 739 751 762 769 774 779 785 788 793 797
740 732 725 719 714 708 702 698 692 684 676 669 661 656 650 649 648 642 641 638 638 639 645 650 660 668 675 681 687 697 704 713 728 739 752 760 769 775 782 786 789 794 798
734 726 720 714 707 702 697 692 684 676 667 657 649 645 638 635 639 635 633 632 637 639 645 655 667 678 677 686 701 712 722 729 733 741 752 763 770 777 781 788 791 793 798
729 721 716 709 702 697 691 686 680 672 661 650 636 623 617 621 631 634 634 638 646 646 654 662 670 683 690 697 708 717 730 738 747 752 758 766 773 780 784 788 792 796 802
722 717 712 706 698 693 688 682 676 665 654 643 631 615 609 616 628 632 637 648 654 659 666 675 678 692 704 707 716 729 741 754 761 764 768 774 780 785 788 791 796 799 804
718 713 709 703 697 692 684 678 671 662 655 647 636 628 628 633 637 642 645 653 659 671 683 691 699 709 720 722 725 734 747 761 763 769 776 781 787 791 794 796 799 801 803
715 709 705 701 696 691 684 678 671 663 659 654 649 648 648 650 655 657 657 662 671 683 697 709 719 723 728 734 738 745 754 765 772 775 781 787 791 796 799 803 804 804 805
712 708 704 699 694 689 684 675 672 669 667 666 664 664 665 665 666 672 677 681 689 695 709 720 729 732 740 746 752 760 766 770 776 781 787 794 798 801 804 806 807 809 811
709 706 704 698 692 688 683 681 680 678 677 678 678 679 683 686 691 692 694 700 706 711 722 732 738 745 752 759 766 770 773 777 783 789 795 800 804 807 809 811 813 814 816
709 706 703 698 693 688 687 688 688 689 688 689 690 694 698 702 705 709 713 718 725 729 736 743 750 757 762 767 772 779 784 789 791 795 800 806 810 813 815 817 818 820 821
712 709 705 700 696 695 696 697 697 699 699 699 704 707 708 715 723 723 725 731 736 741 745 754 760 765 772 779 784 789 793 797 799 804 807 812 816 818 821 824 825 826 826
716 713 709 706 705 704 705 706 709 711 711 713 716 716 724 727 734 736 740 745 749 752 755 762 771 777 782 787 792 797 801 804 807 810 814 817 821 824 826 829 830 831 832
719 716 714 713 714 715 715 716 720 726 727 729 730 733 737 741 746 749 753 756 760 760 764 774 779 785 790 795 799 803 807 812 815 817 821 824 827 830 832 834 836 836 838
725 723 722 722 723 724 726 728 731 734 738 745 749 749 753 755 757 759 762 763 769 774 777 782 788 793 798 802 806 810 815 819 822 825 828 831 833 835 837 839 841 841 842
731 730 730 731 732 733 735 738 741 745 749 753 758 762 765 766 768 770 771 771 777 783 789 793 797 801 805 810 814 818 822 825 829 832 835 837 839 840 842 844 846 846 847
737 737 737 739 741 742 745 748 751 754 759 763 766 770 773 772 775 779 781 784 787 793 798 801 806 810 813 817 821 825 828 832 836 838 841 843 845 846 847 849 850 851 852
742 744 744 746 749 751 754 757 760 762 766 770 774 778 779 779 784 788 791 794 798 802 806 810 814 817 821 825 828 832 835 838 841 844 846 848 850 851 854 854 855 856 856
747 749 750 753 756 759 762 765 768 770 774 777 782 786 787 788 793 796 799 803 807 811 815 818 822 825 829 831 835 838 841 844 847 849 851 853 855 857 858 859 859 860 860
752 754 756 759 762 765 769 772 775 777 781 785 788 791 794 797 801 804 808 812 816 820 824 826 829 833 837 840 842 844 846 849 852 854 856 858 860 861 863 863 864 864 864
757 759 762 765 768 771 775 778 782 785 788 792 795 798 801 805 809 812 816 820 824 828 831 834 837 840 843 846 849 852 854 856 858 860 861 862 864 866 867 867 868 868 869
763 765 768 771 775 778 781 784 788 791 795 798 802 805 809 812 816 820 824 828 831 835 838 841 844 847 850 853 855 858 860 862 864 865 866 867 868 870 871 871 872 872 873
768 771 773 776 780 783 786 790 794 797 801 804 808 811 815 818 823 826 830 834 837 841 844 847 850 853 856 859 861 863 865 867 869 870 871 872 873 874 876 876 877 877 877